Shishmaref, AK

10:22 AM AKST on December 07, 2016 (GMT -0900)
New Shishmaref

Weather History for PASH - April, 2013

Change the Weather History Date:

Wednesday, April 17, 2013

  Actual Average Record
Temperature  
Mean Temperature -2 °F -  
Max Temperature 12 °F 18 °F 33 °F (1999)
Min Temperature -16 °F 5 °F -16 °F (2013)
Degree Days  
Heating Degree Days 67    
Moisture  
Dew Point -15 °F    
Average Humidity 54    
Maximum Humidity 100    
Minimum Humidity 22    
Precipitation  
Precipitation 0.00 in - - ()
Sea Level Pressure  
Sea Level Pressure 30.60 in    
Wind  
Wind Speed 5 mph (ENE)    
Max Wind Speed 9 mph    
Max Gust Speed -    
Visibility 10 miles    
Events      
Averages and records for this station are not official NWS values.
T = Trace of Precipitation, MM = Missing Value Source: NWS Daily Summary

Daily Weather History Graph

Daily Weather History Graph

Search for Another Location

Airport or City:

Trip Planner

Search our weather history database for the weather conditions in past years. The results will help you decide how hot, cold, wet, or windy it might be!

Date:

Astronomy

Apr. 17, 2013 Rise Set
Actual Time 7:12 AM AKDT 10:57 PM AKDT
Civil Twilight 6:08 AM AKDT 12:02 AM AKDT
Nautical Twilight 4:15 AM AKDT 2:03 AM AKDT
Astronomical Twilight Sun does not rise Sun does not rise
Moon 11:46 AM AKDT (4/17) 5:38 AM AKDT (4/17)
Length of Visible Light 17h 53m
Length of Day
15h 44m
Waxing Crescent, 44% of the Moon is Illuminated
Apr 17
Waxing Crescent
Apr 18
First Quarter
Apr 25
Full
May 2
Last Quarter
May 9
New

Hourly Weather History & Observations

Time (AKDT) Temp. Windchill Dew Point Humidity Pressure Visibility Wind Dir Wind Speed Gust Speed Precip Events Conditions
12:16 AM -11.2 °F - -22.0 °F 59% 30.53 in 10.0 mi Calm Calm - N/A   Clear
12:36 AM -11.2 °F -24.8 °F -22.0 °F 59% 30.53 in 10.0 mi East 5.8 mph - N/A   Clear
12:56 AM -9.4 °F -24.3 °F -22.0 °F 54% 30.53 in 10.0 mi East 6.9 mph - N/A   Clear
1:16 AM -11.2 °F -23.0 °F -14.8 °F 84% 30.53 in 10.0 mi East 4.6 mph - N/A   Clear
1:36 AM -16.6 °F -26.8 °F - N/A% 30.53 in 10.0 mi East 3.5 mph - N/A   Clear
1:56 AM -14.8 °F -24.8 °F -18.4 °F 84% 30.53 in 10.0 mi East 3.5 mph - N/A   Clear
2:16 AM -16.6 °F -26.8 °F - N/A% 30.53 in 10.0 mi East 3.5 mph - N/A   Clear
2:36 AM -14.8 °F - -14.8 °F 100% 30.54 in 10.0 mi Calm Calm - N/A   Clear
2:56 AM -16.6 °F -26.8 °F - N/A% 30.54 in 10.0 mi East 3.5 mph - N/A   Clear
3:16 AM -16.6 °F -26.8 °F -25.6 °F 64% 30.54 in 10.0 mi East 3.5 mph - N/A   Clear
3:36 AM -14.8 °F -24.8 °F -25.6 °F 58% 30.54 in 10.0 mi East 3.5 mph - N/A   Clear
3:56 AM -14.8 °F -27.2 °F -14.8 °F 100% 30.54 in 10.0 mi East 4.6 mph - N/A   Clear
4:16 AM -11.2 °F -29.0 °F -25.6 °F 49% 30.54 in 10.0 mi East 9.2 mph - N/A   Clear
4:36 AM -13.0 °F -30.0 °F -20.2 °F 70% 30.55 in 10.0 mi East 8.1 mph - N/A   Clear
4:56 AM -11.2 °F -26.4 °F -18.4 °F 70% 30.55 in 10.0 mi ENE 6.9 mph - N/A   Clear
5:16 AM -13.0 °F -27.0 °F - N/A% 30.55 in 10.0 mi ENE 5.8 mph - N/A   Clear
5:36 AM -14.8 °F -27.2 °F - N/A% 30.55 in 10.0 mi ENE 4.6 mph - N/A   Clear
6:16 AM -9.4 °F -25.6 °F - N/A% 30.55 in 10.0 mi ENE 8.1 mph - N/A   Clear
6:36 AM -13.0 °F -30.0 °F - N/A% 30.55 in 10.0 mi East 8.1 mph - N/A   Clear
6:56 AM -14.8 °F -32.2 °F - N/A% 30.56 in 10.0 mi East 8.1 mph - N/A   Clear
7:16 AM -14.8 °F -33.5 °F - N/A% 30.55 in 10.0 mi East 9.2 mph - N/A   Clear
7:36 AM -11.2 °F -27.8 °F - N/A% 30.56 in 10.0 mi East 8.1 mph - N/A   Clear
7:56 AM -11.2 °F -26.4 °F - N/A% 30.56 in 10.0 mi East 6.9 mph - N/A   Clear
8:16 AM -11.2 °F -27.8 °F -29.2 °F 41% 30.56 in 7.0 mi East 8.1 mph - N/A   Clear
8:36 AM -13.0 °F -25.1 °F - N/A% 30.57 in 10.0 mi ENE 4.6 mph - N/A   Clear
8:56 AM -11.2 °F -24.8 °F -29.2 °F 41% 30.58 in 10.0 mi ENE 5.8 mph - N/A   Clear
9:16 AM -13.0 °F -25.1 °F - N/A% 30.58 in 10.0 mi ENE 4.6 mph - N/A   Clear
9:36 AM -14.8 °F -27.2 °F -27.4 °F 53% 30.58 in 3.0 mi ENE 4.6 mph - N/A   Clear
9:56 AM -9.4 °F -18.6 °F -23.8 °F 49% 30.58 in 10.0 mi ENE 3.5 mph - N/A   Clear
10:16 AM -7.6 °F -20.6 °F -20.2 °F 54% 30.59 in 10.0 mi ENE 5.8 mph - N/A   Clear
10:36 AM -7.6 °F -18.8 °F -20.2 °F 54% 30.59 in 10.0 mi ENE 4.6 mph - N/A   Clear
10:56 AM -7.6 °F -18.8 °F -16.6 °F 65% 30.60 in 10.0 mi ENE 4.6 mph - N/A   Clear
11:16 AM -4.0 °F -14.6 °F -4.0 °F 100% 30.60 in 9.0 mi East 4.6 mph - N/A   Clear
11:36 AM -4.0 °F -14.6 °F -5.8 °F 92% 30.60 in 10.0 mi ENE 4.6 mph - N/A   Clear
11:56 AM -2.2 °F -12.5 °F - N/A% 30.60 in 10.0 mi ENE 4.6 mph - N/A   Clear
12:36 PM -0.4 °F -12.0 °F -25.6 °F 30% 30.61 in 10.0 mi NE 5.8 mph - N/A   Clear
12:56 PM 1.4 °F -9.9 °F -22.0 °F 33% 30.61 in 10.0 mi NE 5.8 mph - N/A   Clear
1:16 PM 1.4 °F -8.3 °F -16.6 °F 43% 30.61 in 10.0 mi ENE 4.6 mph - N/A   Clear
1:36 PM 3.2 °F -9.1 °F -14.8 °F 43% 30.61 in 10.0 mi East 6.9 mph - N/A   Clear
1:56 PM 5.0 °F -5.6 °F -11.2 °F 47% 30.62 in 10.0 mi East 5.8 mph - N/A   Clear
2:16 PM 5.0 °F -4.1 °F -9.4 °F 52% 30.63 in 10.0 mi East 4.6 mph - N/A   Clear
2:36 PM 6.8 °F -2.0 °F -2.2 °F 67% 30.63 in 10.0 mi East 4.6 mph - N/A   Clear
2:56 PM 6.8 °F -2.0 °F - N/A% 30.63 in 10.0 mi East 4.6 mph - N/A   Clear
3:16 PM 8.6 °F 0.1 °F -23.8 °F 22% 30.63 in 10.0 mi ENE 4.6 mph - N/A   Clear
3:36 PM 8.6 °F -2.6 °F -20.2 °F 26% 30.63 in 10.0 mi ENE 6.9 mph - N/A   Clear
3:56 PM 8.6 °F -2.6 °F -16.6 °F 31% 30.63 in 10.0 mi NE 6.9 mph - N/A   Clear
4:16 PM 8.6 °F -4.7 °F -13.0 °F 37% 30.63 in 10.0 mi NE 9.2 mph - N/A   Clear
4:36 PM 10.4 °F -1.5 °F -7.6 °F 44% 30.63 in 10.0 mi ENE 8.1 mph - N/A   Clear
4:56 PM 10.4 °F -0.4 °F -4.0 °F 52% 30.63 in 10.0 mi East 6.9 mph - N/A   Clear
5:16 PM 12.2 °F 1.7 °F 1.4 °F 62% 30.64 in 10.0 mi East 6.9 mph - N/A   Clear
5:36 PM 12.2 °F 1.7 °F 12.2 °F 100% 30.64 in 10.0 mi ENE 6.9 mph - N/A   Clear
5:56 PM 12.2 °F 0.7 °F -20.2 °F 22% 30.63 in 10.0 mi ENE 8.1 mph - N/A   Clear
6:16 PM 12.2 °F 2.9 °F -16.6 °F 27% 30.64 in 10.0 mi East 5.8 mph - N/A   Clear
6:36 PM 12.2 °F 2.9 °F -11.2 °F 34% 30.64 in 10.0 mi ENE 5.8 mph - N/A   Clear
6:56 PM 12.2 °F 1.7 °F -7.6 °F 41% 30.64 in 10.0 mi ENE 6.9 mph - N/A   Clear
7:16 PM 12.2 °F 4.3 °F -4.0 °F 48% 30.64 in 10.0 mi ENE 4.6 mph - N/A   Clear
7:36 PM 10.4 °F -0.4 °F -2.2 °F 57% 30.64 in 10.0 mi ENE 6.9 mph - N/A   Clear
7:56 PM 10.4 °F 4.0 °F -0.4 °F 62% 30.64 in 10.0 mi ENE 3.5 mph - N/A   Clear
8:16 PM 10.4 °F -1.5 °F 3.2 °F 73% 30.64 in 10.0 mi NE 8.1 mph - N/A   Clear
8:36 PM 8.6 °F -3.7 °F -23.8 °F 22% 30.63 in 10.0 mi NE 8.1 mph - N/A   Clear
8:56 PM 6.8 °F -3.5 °F -23.8 °F 23% 30.63 in 10.0 mi NE 5.8 mph - N/A   Clear
9:16 PM 5.0 °F -8.1 °F -20.2 °F 30% 30.63 in 10.0 mi NE 8.1 mph - N/A   Clear
9:36 PM 6.8 °F -0.1 °F -14.8 °F 37% 30.64 in 10.0 mi NE 3.5 mph - N/A   Clear
9:56 PM 3.2 °F - -13.0 °F 47% 30.64 in 10.0 mi Calm Calm - N/A   Clear
10:16 PM 3.2 °F - -11.2 °F 51% 30.64 in 10.0 mi Calm Calm - N/A   Clear
10:36 PM 1.4 °F - -9.4 °F 61% 30.64 in 10.0 mi Calm Calm - N/A   Clear
10:56 PM -0.4 °F -8.3 °F -11.2 °F 60% 30.64 in 10.0 mi NNE 3.5 mph - N/A   Clear
11:16 PM 1.4 °F -6.2 °F -9.4 °F 61% 30.64 in 10.0 mi North 3.5 mph - N/A   Clear
11:36 PM 1.4 °F -6.2 °F -5.8 °F 72% 30.65 in 10.0 mi North 3.5 mph - N/A   Clear
11:56 PM -2.2 °F -12.5 °F - N/A% 30.65 in 10.0 mi North 4.6 mph - N/A   Clear